Find Starlink 11097

NORAD ID: 59759 Int'l Des: 2024-091 Owner: SPXS Country: US Constellation: starlink operational
LEOCIRCULAR

現在のビュー

3D地球を読み込み中...

Starlink 11097について

説明を読み込み中...

次回通過

Passes for default location (London). Set your location on the main map for personalized predictions.

高度履歴

Loading altitude history...

軌道要素

1 59759U 24091G 26149.35990380 -.00000499 00000-0 73664-6 0 9995
2 59759 53.1590 168.5788 0000990 100.7187 259.3942 15.69701582118182
Epoch: May 29, 2026 • Age: 33 hours

現在のステータス

高度 360.1 km
速度 7.70 km/s
衛星直下点 23.87°N, 173.94°E
打ち上げ日 May 14, 2024
運用期間 2 years
タイプ internet

技術仕様

分類 Payload
質量 960.00 kg
乾燥質量 910.00 kg
総質量 960.00 kg
長さ 0.30 m
直径 4.10 m
スパン 29.00 m
形状 Box + pan
製造者 SPXS
バスタイプ Starlink V2MD
フェーズステータス In Orbit
所有者/国 SPXS/US

Most Searched